User: anonymous   Login
Location: Unspecified
(51.0828°N, 0.0000°E)
Time: 03:11:17
(UTC+00:00)
Language:

Cosmos 1624 Rocket - Orbit

View from above orbital plane
View from above orbital plane
View from above satellite
View from above satellite

Ground track
Ground track

The orbit is defined by the following mean orbital elements,

1 15483U          26088.16154852 +.00000000 +00000-0 +11689-3 0 00008
2 15483  74.0452 225.3159 0017661 137.5023  34.3406 14.37797051    08
Epoch (UTC): 29 March 2026 03:52:37
Eccentricity: 0.0017661
inclination: 74.0452°
perigee height: 753 km
apogee height: 778 km
right ascension of ascending node: 225.3159°
argument of perigee: 137.5023°
revolutions per day: 14.37797051
mean anomaly at epoch: 34.3406°

The dashed part of the orbit path shows where the satellite is in the earth's shadow,  

DLR